Regional Weather Roundup
Issued by NWS Green Bay, WI

Home | Current Version | Previous Version | Text Only | Print | Product List | Glossary On
Versions: 1 2 3 4 5 6 7 8 9 10 11 12 13 14 15 16 17 18 19 20 21 22 23 24 25 26 27 28 29 30 31 32 33 34 35 36 37 38 39 40 41 42 43 44 45 46 47 48 49 50
000
ASUS43 KGRB 121510
RWRGRB

NORTH-CENTRAL AND NORTHEAST WISCONSIN REGIONAL WEATHER ROUNDUP
NATIONAL WEATHER SERVICE GREEN BAY WI
1000 AM CDT SAT JUL 12 2014

WIZ005-009-010>012-018-019-121600-
NORTH CENTRAL WISCONSIN

CITY           SKY/WX    TMP DP  RH WIND       PRES   REMARKS
IRONWOOD       PTSUNNY   70  61  73 CALM      29.98S
MANITOWISH WTR PTSUNNY   72  65  79 SW3       30.01F
ARBOR VITAE    PTSUNNY   77  72  83 W5        30.02F
EAGLE RIVER    PTSUNNY   72  64  75 SW7       30.01F
LAND O LAKES   PTSUNNY   74  64  69 W3        30.02F
RHINELANDER    CLOUDY    72  65  78 W5        30.03F
PHILLIPS       CLOUDY    70  67  88 SW3       30.01F
ANTIGO         CLOUDY    71  67  86 W5        30.03F
TOMAHAWK       CLOUDY    71  66  84 CALM      30.03F
MERRILL        CLOUDY    73  68  85 CALM      30.01F
$$

WIZ013-073-121600-
NORTHEAST WISCONSIN

CITY           SKY/WX    TMP DP  RH WIND       PRES   REMARKS
IRON MOUNTAIN  PTSUNNY   74  66  76 NW6       29.99S
MARINETTE      CLOUDY    73  64  73 W3        29.98F
OCONTO         CLOUDY    73  65  75 SW3       29.99F
$$

WIZ017-030-035>037-045-121600-
CENTRAL WISCONSIN

CITY           SKY/WX    TMP DP  RH WIND       PRES   REMARKS
MEDFORD        CLOUDY    70  67  90 CALM      30.02F
WAUSAU         CLOUDY    73  67  81 W3        30.00F
MOSINEE        MOSUNNY   72  70  94 NW5       30.02F
MARSHFIELD     CLOUDY    72  68  87 NW5       30.01F
WISC RAPIDS    CLOUDY    73  67  81 SW3       30.01F
STEVENS POINT  CLOUDY    70  65  82 CALM      30.02F
WAUPACA        CLOUDY    74  67  76 S3        30.01F
SHAWANO        CLOUDY    73  65  74 W3        30.00F
CLINTONVILLE   CLOUDY    72  63  73 S3        30.00F
$$

WIZ038-039-048-051-121600-
FOX VALLEY

CITY           SKY/WX    TMP DP  RH WIND       PRES   REMARKS
NWS GREEN BAY  CLOUDY    74  66  76 S3        30.01F
APPLETON       PTSUNNY   72  63  73 CALM      30.03F
OSHKOSH        CLOUDY    75  66  73 CALM      30.01F
FOND DU LAC    CLOUDY    75  65  70 S5        30.01F
$$

WIZ022-050-052-121600-
EAST CENTRAL WISCONSIN

CITY           SKY/WX    TMP DP  RH WIND       PRES   REMARKS
STURGEON BAY   CLOUDY    72  63  73 SW7       30.01F
MANITOWOC      CLOUDY    70  63  78 S3        30.02F
SHEBOYGAN      CLOUDY    72  64  76 SE3       30.02F
$$

LMZ563-521-522-541>543-121600-
LAKESHORE

STATION/POSITION TIME  TEMP    WIND        PRES    VSBY  WAVE
                       AIR SEA DIR/SP/G                  HT/PER
                 (UTC) (F)     (DEG/KT/KT) (MB)    (MI)  (FT/S)
SHEBOYGAN LKSHOR 1500   63     150/  8/  8 1016.3F
KEWAUNEE LKSHORE 1500   53     170/  7/  9 1017.0F
NORTHPORT PIER   1500   67     150/  5/  6 1015.9S
N MID LAKE BUOY  1500   57 55  210/ 14/ 16 1015.5F         2/ 4
MENOMINEE LKSHOR 1500   69     180/  7/  9 1016.3S
$$


USA.gov is the U.S. government's official web portal to all federal, state and local government web resources and services.